TimeEST,TemperatureF,Dew PointF,Humidity,Sea Level PressureIn,VisibilityMPH,Wind Direction,Wind SpeedMPH,Gust SpeedMPH,PrecipitationIn,Events,Conditions,WindDirDegrees,DateUTC
12:11 AM,46.4,44.6,93,29.96,7.0,South,3.5,-,N/A,,Overcast,180,2012-12-08 05:11:00
12:53 AM,46.9,44.1,90,29.95,7.0,Calm,Calm,-,N/A,,Overcast,0,2012-12-08 05:53:00
1:53 AM,46.9,45.0,93,29.93,7.0,South,5.8,-,N/A,,Overcast,180,2012-12-08 06:53:00
2:53 AM,46.9,45.0,93,29.92,6.0,Calm,Calm,-,N/A,,Overcast,0,2012-12-08 07:53:00
3:49 AM,46.4,44.6,93,29.91,5.0,South,4.6,-,N/A,,Overcast,190,2012-12-08 08:49:00
3:53 AM,46.9,45.0,93,29.91,5.0,SSW,4.6,-,N/A,,Overcast,200,2012-12-08 08:53:00
4:21 AM,46.4,46.4,100,29.90,2.5,South,5.8,-,N/A,,Overcast,190,2012-12-08 09:21:00
4:33 AM,46.4,46.4,100,29.91,0.8,SSW,6.9,-,N/A,,Overcast,200,2012-12-08 09:33:00
4:53 AM,46.9,46.0,97,29.90,0.5,SSW,6.9,-,N/A,Fog,Fog,200,2012-12-08 09:53:00
5:53 AM,46.0,45.0,96,29.91,0.2,SSW,6.9,-,N/A,Fog,Fog,200,2012-12-08 10:53:00
6:53 AM,46.0,45.0,96,29.92,0.2,South,5.8,-,N/A,Fog,Fog,190,2012-12-08 11:53:00
7:53 AM,46.0,45.0,96,29.94,0.2,SSW,8.1,-,N/A,Fog,Fog,200,2012-12-08 12:53:00
8:53 AM,46.9,46.9,100,29.95,0.5,Variable,4.6,-,N/A,Fog,Fog,0,2012-12-08 13:53:00
9:07 AM,48.2,46.4,93,29.95,1.8,South,5.8,-,N/A,,Overcast,190,2012-12-08 14:07:00
9:51 AM,48.2,46.4,93,29.96,2.0,South,4.6,-,N/A,,Overcast,170,2012-12-08 14:51:00
9:53 AM,48.9,46.9,93,29.96,2.0,South,5.8,-,N/A,,Overcast,190,2012-12-08 14:53:00
10:15 AM,50.0,46.4,87,29.95,2.0,SSE,6.9,-,N/A,,Scattered Clouds,160,2012-12-08 15:15:00
10:50 AM,53.6,46.4,77,29.94,8.0,South,4.6,-,N/A,,Partly Cloudy,170,2012-12-08 15:50:00
10:53 AM,54.0,48.0,80,29.94,8.0,South,5.8,-,N/A,,Clear,190,2012-12-08 15:53:00
11:53 AM,57.0,48.0,72,29.92,10.0,South,5.8,-,N/A,,Clear,180,2012-12-08 16:53:00
12:53 PM,59.0,48.9,69,29.90,10.0,South,6.9,-,N/A,,Clear,180,2012-12-08 17:53:00
1:53 PM,62.1,48.9,62,29.88,10.0,SSE,6.9,-,N/A,,Clear,160,2012-12-08 18:53:00
2:53 PM,63.0,48.9,60,29.89,10.0,South,12.7,-,N/A,,Clear,180,2012-12-08 19:53:00
3:53 PM,62.1,50.0,65,29.89,10.0,South,10.4,-,N/A,,Clear,190,2012-12-08 20:53:00
4:53 PM,57.9,50.0,75,29.91,10.0,South,8.1,-,N/A,,Clear,190,2012-12-08 21:53:00
5:53 PM,55.9,48.9,77,29.93,10.0,SSW,8.1,-,N/A,,Clear,210,2012-12-08 22:53:00
6:53 PM,55.9,48.9,77,29.94,10.0,South,6.9,-,N/A,,Mostly Cloudy,180,2012-12-08 23:53:00
7:53 PM,54.0,48.9,83,29.96,10.0,South,8.1,-,N/A,,Scattered Clouds,180,2012-12-09 00:53:00
8:53 PM,55.0,50.0,83,29.96,10.0,Calm,Calm,-,N/A,,Clear,0,2012-12-09 01:53:00
9:53 PM,55.0,51.1,86,29.98,10.0,Calm,Calm,-,N/A,,Clear,0,2012-12-09 02:53:00
10:53 PM,52.0,50.0,93,29.99,8.0,South,5.8,-,N/A,,Scattered Clouds,190,2012-12-09 03:53:00
11:53 PM,52.0,50.0,93,30.00,10.0,South,3.5,-,N/A,,Overcast,190,2012-12-09 04:53:00